Powrót do katalogu

STARLINK-37895

AktywnyŁącznośćVLEO
NORAD 69950·PAYLOAD·🇺🇸 United States

Wystrzelony Jul 9, 2026 z Cape Canaveral Space Force Station

Loading…

Następne Przeloty (najbliższe 24 godziny)

TLE

ŚwieżeSource: CelesTrak SupGP

Epoka: Sep 15, 2026, 04:40 UTC

1 69950C 26157H   26258.19493056  .00070484  00000+0  20151-2 0  2581
2 69950  53.1587 358.6389 0001093  89.5035  27.7449 15.35386994    12

Śledź STARLINK-37895 w czasie rzeczywistym z AllMySat

Download on the App Store